Regional Weather Roundup
Issued by NWS Green Bay, WI

Home | Current Version | Previous Version | Text Only | Print | Product List | Glossary On
Versions: 1 2 3 4 5 6 7 8 9 10 11 12 13 14 15 16 17 18 19 20 21 22 23 24 25 26 27 28 29 30 31 32 33 34 35 36 37 38 39 40 41 42 43 44 45 46 47 48 49 50
000
ASUS43 KGRB 250401
RWRGRB

NORTH-CENTRAL AND NORTHEAST WISCONSIN REGIONAL WEATHER ROUNDUP
NATIONAL WEATHER SERVICE GREEN BAY WI
1100 PM CDT WED MAY 24 2017

WIZ005-009-010>012-018-019-250500-
NORTH CENTRAL WISCONSIN

CITY           SKY/WX    TMP DP  RH WIND       PRES   REMARKS
IRONWOOD       CLEAR     42  41  96 CALM      29.76S
MANITOWISH WTR NOT AVBL
ARBOR VITAE    NOT AVBL
EAGLE RIVER    NOT AVBL
LAND O LAKES   NOT AVBL
RHINELANDER    CLOUDY    53  49  86 NE5       29.74S
PHILLIPS       NOT AVBL
ANTIGO         NOT AVBL
TOMAHAWK       NOT AVBL
MERRILL        NOT AVBL
$$

WIZ013-073-250500-
NORTHEAST WISCONSIN

CITY           SKY/WX    TMP DP  RH WIND       PRES   REMARKS
IRON MOUNTAIN  LGT RAIN  50  45  83 N7        29.72F
MARINETTE      CLOUDY    51  48  89 N9        29.71S
$$

WIZ017-030-035>037-045-250500-
CENTRAL WISCONSIN

CITY           SKY/WX    TMP DP  RH WIND       PRES   REMARKS
MEDFORD        NOT AVBL
WAUSAU         CLOUDY    53  49  86 NE7       29.70F
MOSINEE        NOT AVBL
MARSHFIELD     CLEAR     50  47  89 CALM      29.71S
WISC RAPIDS    CLOUDY    54  49  83 NE6       29.72S
STEVENS POINT  NOT AVBL
WAUPACA        NOT AVBL
SHAWANO        NOT AVBL
CLINTONVILLE   NOT AVBL
WAUTOMA        CLOUDY    53  50  89 N8        29.70S
$$

WIZ038-039-048-051-250500-
FOX VALLEY

CITY           SKY/WX    TMP DP  RH WIND       PRES   REMARKS
NWS GREEN BAY  PTCLDY    53  51  93 N14       29.68S
APPLETON       CLOUDY    52  50  93 NE13      29.66F
OSHKOSH        CLOUDY    54  49  83 NE12      29.66S
FOND DU LAC    CLOUDY    54  49  83 N13G21    29.66S
$$

WIZ022-050-052-250500-
EAST CENTRAL WISCONSIN

CITY           SKY/WX    TMP DP  RH WIND       PRES   REMARKS
EPHRAIM        NOT AVBL
WASHINGTON ISL NOT AVBL
STURGEON BAY   CLOUDY    50  49  96 N9        29.69S
MANITOWOC      NOT AVBL
SHEBOYGAN      CLOUDY    52  51  97 N8        29.63S
$$

LMZ563-521-522-541>543-250500-
LAKESHORE

STATION/POSITION TIME  TEMP    WIND        PRES    VSBY  WAVE
                       AIR SEA DIR/SP/G                  HT/PER
                 (UTC) (F)     (DEG/KT/KT) (MB)    (MI)  (FT/S)
SHEBOYGAN LKSHOR 0300   50     350/ 18/ 20 1003.4S
KEWAUNEE LKSHORE 0330   52      20/ 16/ 22 1004.2S
NORTHPORT PIER   0340   48     330/  6/  7 1005.8S
N MID LAKE BUOY  0250   45 40   30/ 10/ 10 1006.3F         1/ 3
CHAMBERS ISLAND  0340   49     340/ 10/ 13 1005.8S
MENOMINEE LKSHOR 0330          340/ 13/ 15 1005.0F
$$




USA.gov is the U.S. government's official web portal to all federal, state and local government web resources and services.